Retour au catalogue

FENGYUN 1C DEB

ActifPO
NORAD 30301·DEBRIS·🇨🇳 China

Lancé May 10, 1999 depuis Taiyuan Satellite Launch Center

Loading…

Prochains Passages (prochaines 24 heures)

TLE

FraisSource: Space-Track

Époque: Sep 14, 2026, 05:33 UTC

1 30301U 99025ZN  26257.23159936  .00012263  00000-0  23738-2 0  9991
2 30301  98.6445  64.0580 0058590 162.7112  11.3404 14.62370404 12327

Suivez FENGYUN 1C DEB en temps réel avec AllMySat

Download on the App Store